Regional Weather Roundup
Issued by NWS

Current Version | Previous Version | Text Only | Print | Product List | Glossary On
Versions: 1 2 3 4 5 6 7 8 9 10 11 12 13 14 15 16 17 18 19 20 21 22 23 24 25 26 27 28 29 30 31 32 33 34 35 36 37 38 39 40 41 42 43 44 45 46 47 48 49 50
846
ASUS44 KJAN 260010
RWRMS

MISSISSIPPI HOURLY WEATHER ROUNDUP
NATIONAL WEATHER SERVICE JACKSON MS
700 PM CDT WED APR 25 2018

NOTE: "FAIR: INDICATES FEW OR NO CLOUDS BELOW 12,000 FEET WITH NO
SIGNIFICANT WEATHER AND/OR OBSTRUCTIONS TO VISIBILITY.

MSZ001>002-007>008-010>013-018>021-025>028-034>036-260100-
NORTHWEST MISSISSIPPI

CITY           SKY/WX    TMP DP  RH WIND       PRES   REMARKS
BATESVILLE       N/A    N/A N/A N/A MISG        N/A
CLARKSDALE     MOCLDY    61  59  94 N8        29.97S
CLEVELAND      DRIZZLE   64  59  82 N16G22    29.94S
GREENWOOD      CLOUDY    71  54  54 CALM      29.93F
6HR MIN TEMP:  71; 6HR MAX TEMP:  79;

GREENVILLE     CLOUDY    70  59  68 N3        29.92F
6HR MIN TEMP:  70; 6HR MAX TEMP:  77; 6HR PCP: TRACE;

OLIVE BRANCH   CLOUDY    61  46  59 N6        29.97S
OXFORD         MOCLDY    64  50  59 NE8       29.96F
TUNICA         LGT RAIN  57  54  88 N5        29.98F
WINONA         FAIR      70  52  51 CALM      29.93S
$$

MSZ003>006-009-014>017-022>024-029>033-037>039-260100-
NORTHEAST MISSISSIPPI

CITY           SKY/WX    TMP DP  RH WIND       PRES   REMARKS
ABERDEEN         N/A     72  64  78 W5        29.93S
COLUMBUS AFB   MOCLDY    73  55  53 CALM      29.92F
6HR MIN TEMP:  73; 6HR MAX TEMP:  78;

CORINTH        CLOUDY    64  46  52 N9        29.95S
GOLDN TRIANGLE FAIR      73  56  54 CALM      29.93S
TUPELO         CLOUDY    71  46  40 NW7       29.93R
6HR MIN TEMP:  71; 6HR MAX TEMP:  78;

$$

MSZ040-058-260100-
CENTRAL MISSISSIPPI

CITY           SKY/WX    TMP DP  RH WIND       PRES   REMARKS
JACKSON INTL   MOCLDY    71  54  54 NE5       29.94F
6HR MIN TEMP:  71; 6HR MAX TEMP:  79;

JACKSON HAWKNS FAIR      74  52  46 N3        29.95F
6HR MIN TEMP:  74; 6HR MAX TEMP:  80;

MADISON        FAIR      70  52  52 CALM      29.94F
MERIDIAN KEY   FAIR      73  57  57 NW3       29.94S
6HR MIN TEMP:  73; 6HR MAX TEMP:  80;

MERIDIAN NAS   FAIR      73  57  57 CALM      29.94S
6HR MIN TEMP:  73; 6HR MAX TEMP:  79;

RAYMOND        FAIR      72  55  56 CALM      29.94S
VICKSBURG VKS  CLOUDY    73  55  53 CALM      29.94F
$$

MSZ059>079-260100-
SOUTH MISSISSIPPI

CITY           SKY/WX    TMP DP  RH WIND       PRES   REMARKS
COLUMBIA       FAIR      75  55  50 NW3       29.99R
HATTIESBURG    FAIR      76  54  46 N3        29.94S
6HR MIN TEMP:  75; 6HR MAX TEMP:  80;

LAUREL         FAIR      74  53  47 N3        29.95S
MCCOMB         FAIR      76  56  49 CALM      29.95S
6HR MIN TEMP:  76; 6HR MAX TEMP:  82;

NATCHEZ        CLOUDY    75  59  57 S5        29.95F
6HR MIN TEMP:  75; 6HR MAX TEMP:  80;

PINE BELT      FAIR      75  55  49 NW3       29.95S
6HR MIN TEMP:  74; 6HR MAX TEMP:  80;

$$

MSZ080>082-260100-
COASTAL MISSISSIPPI

CITY           SKY/WX    TMP DP  RH WIND       PRES   REMARKS
BAY ST LOUIS   CLEAR     75  55  50 NW5       29.93S
BILOXI         FAIR      77  53  42 N6        29.92S
6HR MIN TEMP:  77; 6HR MAX TEMP:  82;

PASCAGOULA     FAIR      73  60  63 SW5       29.92S
6HR MIN TEMP:  73; 6HR MAX TEMP:  82;

GULFPORT       FAIR      79  52  38 N7        29.91S
6HR MIN TEMP:  78; 6HR MAX TEMP:  84;

$$

LAZ007>009-015>016-023>026-260100-
NORTHEAST LOUISIANA

CITY           SKY/WX    TMP DP  RH WIND       PRES   REMARKS
BASTROP        CLOUDY    72  64  77 CALM      29.93F
TALLULAH/VBURG CLOUDY    73  58  59 E5        29.93F
6HR MIN TEMP:  73; 6HR MAX TEMP:  80;

VIDALIA        CLOUDY    75  61  62 S5        29.93F
$$




USA.gov is the U.S. government's official web portal to all federal, state and local government web resources and services.